Simultaneous Nadir Overpasses (SNOs) Predictions

Prediction of SNOs between LANDSAT-8 and NOAA-19 Satellite Orbit:

Table of predicted SNOs for the next 14.0 days since TLE Epoch: 1/24/2025
Index Date (LANDSAT-8) Time (LANDSAT-8) Lat,Lon (LANDSAT-8) SZA (LANDSAT-8 ) Date (NOAA-19) Time (NOAA-19) Lat,Lon (NOAA-19) SZA (NOAA-19 ) Distance(km) Time Diff (sec)
1 01/25/2025 17:06:52 79.89, -50.11 99.41 01/25/2025 17:06:48 79.90, -49.98 99.43 2.95 4
2 01/27/2025 23:30:07 79.81,-146.54 98.71 01/27/2025 23:29:11 79.82,-146.41 98.71 2.73 56
3 01/28/2025 00:19:30 -79.95, 22.25 81.10 01/28/2025 00:20:10 -79.95, 22.33 81.08 1.45 40
4 01/30/2025 06:42:45 -79.86, -74.30 81.85 01/30/2025 06:42:33 -79.87, -74.14 81.83 3.23 12
5 01/30/2025 07:31:51 80.53, 99.35 99.18 01/30/2025 07:33:05 80.37, 99.68 99.10 17.96 74
6 02/01/2025 13:06:00 -79.75,-170.96 82.65 02/01/2025 13:04:57 -79.75,-170.98 82.67 0.41 63
7 02/01/2025 13:55:23 79.85, -2.52 97.49 02/01/2025 13:55:46 79.85, -2.63 97.49 2.24 23
8 02/03/2025 20:18:36 79.79, -98.78 96.74 02/03/2025 20:18:07 79.80, -98.68 96.75 2.04 29
9 02/03/2025 21:08:00 -79.91, 69.77 83.11 02/03/2025 21:09:07 -79.92, 69.82 83.08 1.25 67



Historial Predications of SNOs between LANDSAT-8 and NOAA-19
